This demonstration page uses our WeatherBlox Daily Observations layout. Learn more.

Left ArrowRight Arrow

Hourly Observations for December 30, 2020

Temp ( °F °C ) Dew Point ( °F °C ) Humidity (%) Winds ( mph kmh ) Pressure ( in mb ) Visibility ( mi km ) Precip ( " mm )
12:15 am 00:15 Clear 31 -0.8 24 -4.3 77 77 NW 13 20 30.13 1020 10 16.0934 0 0
12:35 am 00:35 Clear 29 -1.6 24 -4.5 81 81 NNW 13 20 30.15 1021 10 16.0934 0 0
12:55 am 00:55 Clear 28 -2 23 -5.2 79 79 NNW 12 19 30.16 1021 10 16.0934 0 0
1:15 am 01:15 Clear 27 -2.9 21 -6.2 78 78 NW 9 15 30.18 1022 10 16.0934 0 0
1:35 am 01:35 Clear 23 -5.2 19 -7.5 84 84 NW 12 19 30.21 1023 10 16.0934 0 0
1:55 am 01:55 Clear 24 -4.7 19 -7.3 82 82 NW 12 19 30.19 1022 10 16.0934 0 0
2:15 am 02:15 Clear 24 -4.6 19 -7.4 81 81 NW 9 15 30.19 1022 10 16.0934 0 0
2:35 am 02:35 Clear 20 -6.5 16 -8.9 83 83 NW 9 15 30.21 1023 10 16.0934 0 0
2:55 am 02:55 Clear 21 -6 17 -8.4 83 83 NW 10 17 30.21 1023 10 16.0934 0 0
3:15 am 03:15 Clear 22 -5.4 17 -8.2 81 81 NW 15 24 30.21 1023 10 16.0934 0 0
3:35 am 03:35 Clear 23 -5.1 17 -8.3 79 79 NW 15 24 30.19 1023 10 16.0934 0 0
3:55 am 03:55 Clear 23 -5.2 17 -8.5 78 78 NW 15 24 30.19 1022 10 16.0934 0 0
4:15 am 04:15 Clear 23 -5.1 16 -8.9 75 75 NW 14 22 30.19 1023 10 16.0934 0 0
4:35 am 04:35 Clear 21 -5.9 16 -9 79 79 WNW 13 20 30.21 1023 10 16.0934 0 0
4:55 am 04:55 Clear 21 -6.1 15 -9.4 78 78 WNW 13 20 30.21 1023 10 16.0934 0 0
5:15 am 05:15 Clear 21 -6.1 15 -9.4 78 78 WNW 9 15 30.21 1023 10 16.0934 0 0
5:35 am 05:35 Clear 20 -6.7 14 -9.9 78 78 W 12 19 30.23 1024 10 16.0934 0 0
5:55 am 05:55 Clear 20 -6.6 14 -10 77 77 W 9 15 30.24 1024 10 16.0934 0 0
6:15 am 06:15 Clear 20 -6.8 13 -10.3 76 76 W 9 15 30.25 1024 10 16.0934 0 0
6:35 am 06:35 Clear 19 -7.5 13 -10.8 78 78 W 8 13 30.27 1025 10 16.0934 0 0
6:55 am 06:55 Clear 18 -7.6 13 -10.8 78 78 WSW 7 11 30.29 1026 10 16.0934 0 0
7:15 am 07:15 Clear 16 -9 12 -11.3 84 84 WSW 6 9 30.3 1026 10 16.0934 0 0
7:35 am 07:35 Clear 16 -9 12 -11.3 84 84 WSW 6 9 30.3 1026 10 16.0934 0 0
7:55 am 07:55 Clear 14 -10.1 10 -12.3 84 84 SW 5 7 30.33 1027 10 16.0934 0 0
8:15 am 08:15 Sunny 15 -9.6 11 -11.8 84 84 WSW 6 9 30.32 1027 10 16.0934 0 0
8:35 am 08:35 Sunny 16 -8.9 11 -11.5 82 82 WSW 8 13 30.32 1027 10 16.0934 0 0
8:55 am 08:55 Sunny 15 -9.4 10 -12 82 82 SW 5 7 30.34 1027 10 16.0934 0 0
9:15 am 09:15 Sunny 17 -8.3 12 -11.2 80 80 SW 8 13 30.34 1027 10 16.0934 0 0
9:35 am 09:35 Sunny 18 -7.8 12 -11.1 77 77 SW 9 15 30.33 1027 10 16.0934 0 0
9:55 am 09:55 Sunny 19 -7.1 13 -10.5 77 77 SW 6 9 30.34 1027 10 16.0934 0 0
10:15 am 10:15 Sunny 20 -6.5 14 -10.1 76 76 SW 7 11 30.34 1027 10 16.0934 0 0
10:35 am 10:35 Sunny 22 -5.7 15 -9.5 75 75 WSW 6 9 30.35 1028 10 16.0934 0 0
10:55 am 10:55 Sunny 23 -5 15 -9.2 73 73 SW 7 11 30.34 1028 10 16.0934 0 0
11:15 am 11:15 Sunny 24 -4.5 16 -9 71 71 WSW 9 15 30.33 1027 10 16.0934 0 0
11:35 am 11:35 Sunny 24 -4.3 16 -9 70 70 W 9 15 30.33 1027 10 16.0934 0 0
11:55 am 11:55 Sunny 25 -4.1 17 -8.5 72 72 W 12 19 30.31 1026 10 16.0934 0 0
12:15 pm 12:15 Sunny 26 -3.5 18 -8 71 71 WSW 12 19 30.29 1026 10 16.0934 0 0
12:35 pm 12:35 Sunny 27 -3 18 -7.6 71 71 WSW 12 19 30.28 1026 10 16.0934 0 0
12:55 pm 12:55 Sunny 27 -3 18 -7.6 71 71 WSW 13 20 30.27 1025 10 16.0934 0 0
1:15 pm 13:15 Sunny 27 -2.6 19 -7.2 71 71 WSW 10 17 30.27 1025 10 16.0934 0 0
1:35 pm 13:35 Sunny 28 -2.3 19 -7.2 69 69 W 10 17 30.26 1025 10 16.0934 0 0
1:55 pm 13:55 Sunny 28 -2.3 19 -7.1 70 70 WSW 13 20 30.25 1024 10 16.0934 0 0
2:15 pm 14:15 Sunny 28 -2 20 -6.9 69 69 WSW 8 13 30.24 1024 10 16.0934 0 0
2:35 pm 14:35 Sunny 29 -1.8 20 -6.8 69 69 WSW 8 13 30.24 1024 10 16.0934 0 0
2:55 pm 14:55 Sunny 29 -1.6 20 -6.8 68 68 WSW 7 11 30.24 1024 10 16.0934 0 0
3:15 pm 15:15 Sunny 29 -1.6 20 -6.8 68 68 WSW 10 17 30.24 1024 10 16.0934 0 0
3:35 pm 15:35 Sunny 29 -1.5 20 -6.8 68 68 WSW 8 13 30.24 1024 10 16.0934 0 0
3:55 pm 15:55 Sunny 29 -1.5 20 -6.5 69 69 SW 6 9 30.24 1024 10 16.0934 0 0
4:15 pm 16:15 Sunny 29 -1.8 20 -6.5 71 71 SW 3 6 30.24 1024 10 16.0934 0 0
4:35 pm 16:35 Sunny 28 -2 20 -6.6 71 71 SW 3 6 30.23 1024 10 16.0934 0 0
4:55 pm 16:55 Sunny 28 -2.3 20 -6.7 72 72 SSW 5 7 30.24 1024 10 16.0934 0 0
5:15 pm 17:15 Sunny 26 -3.2 19 -7.2 74 74 S 3 6 30.25 1024 10 16.0934 0 0
5:35 pm 17:35 Clear 25 -4.1 19 -7.5 77 77 SW 3 6 30.25 1024 10 16.0934 0 0
5:55 pm 17:55 Clear 25 -4 19 -7.2 79 79 SSW 5 7 30.24 1024 10 16.0934 0 0
6:15 pm 18:15 Clear 23 -5 18 -7.7 82 82 Calm 30.25 1025 10 16.0934 0 0
6:35 pm 18:35 Clear 23 -5 18 -7.8 81 81 Calm 30.25 1025 10 16.0934 0 0
6:55 pm 18:55 Clear 22 -5.4 18 -8 82 82 SSW 3 6 30.26 1025 10 16.0934 0 0
7:15 pm 19:15 Clear 22 -5.5 18 -8 83 83 SW 5 7 30.26 1025 10 16.0934 0 0
7:35 pm 19:35 Clear 20 -6.6 16 -8.9 84 84 Calm 30.26 1025 10 16.0934 0 0
7:55 pm 19:55 Clear 22 -5.5 18 -8 83 83 Calm 30.25 1024 10 16.0934 0 0
8:15 pm 20:15 Clear 18 -7.8 15 -9.6 87 87 SSW 6 9 30.27 1025 10 16.0934 0 0
8:35 pm 20:35 Clear 17 -8.5 13 -10.3 87 87 SSW 5 7 30.27 1025 10 16.0934 0 0
8:55 pm 20:55 Clear 16 -8.9 13 -10.5 88 88 SW 6 9 30.27 1025 10 16.0934 0 0
9:15 pm 21:15 Clear 20 -6.8 17 -8.6 87 87 SSW 6 9 30.25 1024 10 16.0934 0 0
9:35 pm 21:35 Clear 20 -6.8 16 -8.7 87 87 SSW 6 9 30.24 1024 10 16.0934 0 0
9:55 pm 21:55 Clear 19 -7.3 15 -9.3 86 86 SSW 6 9 30.26 1025 10 16.0934 0 0
10:15 pm 22:15 Clear 16 -9.1 13 -10.8 88 88 S 5 7 30.27 1025 10 16.0934 0 0
10:35 pm 22:35 Clear 18 -7.6 16 -8.8 91 91 SSW 8 13 30.25 1024 10 16.0934 0 0
10:55 pm 22:55 Clear 19 -7.4 16 -8.8 90 90 S 7 11 30.25 1024 10 16.0934 0 0
11:15 pm 23:15 Clear 20 -6.6 18 -8 90 90 SSW 9 15 30.24 1024 10 16.0934 0 0
11:35 pm 23:35 Clear 22 -5.7 18 -7.7 86 86 SSW 7 11 30.23 1024 10 16.0934 0 0
11:55 pm 23:55 Clear 22 -5.4 18 -7.6 85 85 SSW 9 15 30.23 1024 10 16.0934 0 0

Powered by AerisWeather